Change the Weather History Date:

Sunday, June 2, 2013

  Actual Average Record
Temperature  
Mean Temperature 55 °F 56 °F  
Max Temperature 66 °F 67 °F 88 °F (1948)
Min Temperature 44 °F 45 °F 30 °F (1962)
Degree Days  
Heating Degree Days 10 9  
Month to date heating degree days 22 18  
Since 1 June heating degree days 22 18  
Since 1 July heating degree days 9242 9283  
Cooling Degree Days 0 0  
Month to date cooling degree days 0 0  
Year to date cooling degree days 1 4  
Since 1 June cooling degree days 0 0  
Growing Degree Days 5 (Base 50)    
Moisture  
Dew Point 36 °F    
Average Humidity 54    
Maximum Humidity 76    
Minimum Humidity 31    
Precipitation  
Precipitation 0.00 in 0.11 in 1.51 in (1902)
Month to date precipitation 0.04 0.23  
Year to date precipitation 13.38 9.15  
Snow  
Snow 0.00 in 0.00 in 0.20 in (1945)
Month to date snowfall 0.0 0.0  
Since 1 June snowfall 0.0 0.0  
Since 1 July snowfall 129.4 86.1  
Snow Depth 0.00 in    
Sea Level Pressure  
Sea Level Pressure 30.02 in    
Wind  
Wind Speed 9 mph (NNW)    
Max Wind Speed 17 mph    
Max Gust Speed 26 mph    
Visibility 10 miles    
Events      
T = Trace of Precipitation, MM = Missing Value Source: NWS Daily Summary

Daily Weather History Graph

Daily Weather History Graph

Search for Another Location

Airport or City:

Trip Planner

Search our weather history database for the weather conditions in past years. The results will help you decide how hot, cold, wet, or windy it might be!

Date:

Astronomy

Jun. 02, 2013 Rise Set
Actual Time 5:17 AM CDT 8:56 PM CDT
Civil Twilight 4:39 AM CDT 9:35 PM CDT
Nautical Twilight 3:47 AM CDT 10:27 PM CDT
Astronomical Twilight 2:36 AM CDT 11:38 PM CDT
Moon 2:05 AM CDT (6/2) 3:09 PM CDT (6/2)
Length of Visible Light 16h 56m
Length of Day
15h 39m
Waning Crescent, 30% of the Moon is Illuminated
Jun 2
Waning Crescent
Jun 8
New
Jun 16
First Quarter
Jun 23
Full
Jun 29
Last Quarter

Hourly Weather History & Observations

Time (CDT) Temp. Windchill Dew Point Humidity Pressure Visibility Wind Dir Wind Speed Gust Speed Precip Events Conditions
12:41 AM 46.4 °F 39.5 °F 39.2 °F 76% 29.95 in 10.0 mi North 17.3 mph 24.2 mph 0.00 in   Overcast
12:55 AM 46.0 °F 39.6 °F 39.0 °F 76% 29.99 in 10.0 mi North 15.0 mph 21.9 mph 0.00 in   Overcast
1:11 AM 46.4 °F 40.4 °F 37.4 °F 71% 29.96 in 10.0 mi North 13.8 mph 20.7 mph N/A   Scattered Clouds
1:36 AM 46.4 °F 41.5 °F 39.2 °F 76% 29.96 in 10.0 mi North 10.4 mph - N/A   Mostly Cloudy
1:55 AM 46.0 °F 39.0 °F 37.9 °F 73% 29.99 in 10.0 mi North 17.3 mph 26.5 mph N/A   Scattered Clouds
2:55 AM 46.0 °F 40.2 °F 37.0 °F 71% 30.00 in 10.0 mi North 12.7 mph - N/A   Mostly Cloudy
3:55 AM 46.0 °F 41.0 °F 37.9 °F 73% 30.01 in 10.0 mi North 10.4 mph 17.3 mph N/A   Overcast
4:55 AM 45.0 °F 41.2 °F 37.0 °F 74% 30.02 in 10.0 mi North 6.9 mph - N/A   Overcast
5:50 AM 44.6 °F 39.7 °F 35.6 °F 71% 30.00 in 10.0 mi NNE 9.2 mph - N/A   Scattered Clouds
5:55 AM 44.1 °F 40.1 °F 35.1 °F 71% 30.04 in 10.0 mi North 6.9 mph - N/A   Scattered Clouds
6:55 AM 45.0 °F 40.1 °F 37.0 °F 74% 30.06 in 10.0 mi WNW 9.2 mph - N/A   Scattered Clouds
7:55 AM 46.9 °F - 37.0 °F 68% 30.07 in 10.0 mi NNW 8.1 mph - N/A   Scattered Clouds
8:04 AM 46.4 °F 42.4 °F 35.6 °F 66% 30.05 in 10.0 mi NW 8.1 mph - N/A   Mostly Cloudy
8:55 AM 48.0 °F - 37.0 °F 66% 30.08 in 10.0 mi NW 8.1 mph - N/A   Mostly Cloudy
9:11 AM 50.0 °F - 35.6 °F 58% 30.05 in 10.0 mi North 11.5 mph 17.3 mph N/A   Scattered Clouds
9:36 AM 50.0 °F - 35.6 °F 58% 30.04 in 10.0 mi NNW 10.4 mph 18.4 mph N/A   Mostly Cloudy
9:55 AM 51.1 °F - 36.0 °F 56% 30.08 in 10.0 mi NNW 13.8 mph 20.7 mph N/A   Mostly Cloudy
10:09 AM 51.8 °F - 37.4 °F 58% 30.05 in 10.0 mi NW 11.5 mph 17.3 mph N/A   Mostly Cloudy
10:55 AM 55.0 °F - 37.0 °F 51% 30.07 in 10.0 mi NW 9.2 mph 17.3 mph N/A   Mostly Cloudy
11:55 AM 57.0 °F - 36.0 °F 45% 30.05 in 10.0 mi NNW 12.7 mph - N/A   Clear
12:55 PM 59.0 °F - 35.1 °F 41% 30.04 in 10.0 mi NW 8.1 mph - N/A   Scattered Clouds
1:55 PM 61.0 °F - 36.0 °F 39% 30.03 in 10.0 mi NNW 15.0 mph 20.7 mph N/A   Scattered Clouds
2:55 PM 63.0 °F - 37.0 °F 38% 30.02 in 10.0 mi West 9.2 mph 19.6 mph N/A   Partly Cloudy
3:55 PM 64.0 °F - 34.0 °F 33% 30.01 in 10.0 mi NNW 10.4 mph 17.3 mph N/A   Partly Cloudy
4:55 PM 64.9 °F - 35.1 °F 33% 30.00 in 10.0 mi WNW 9.2 mph - N/A   Scattered Clouds
5:55 PM 64.9 °F - 34.0 °F 32% 29.99 in 10.0 mi WNW 8.1 mph 17.3 mph N/A   Partly Cloudy
6:55 PM 64.0 °F - 33.1 °F 31% 29.99 in 10.0 mi NW 11.5 mph - N/A   Partly Cloudy
7:55 PM 63.0 °F - 34.0 °F 34% 29.99 in 10.0 mi NNW 4.6 mph - N/A   Partly Cloudy
8:55 PM 60.1 °F - 34.0 °F 38% 30.01 in 10.0 mi NNW 3.5 mph - N/A   Partly Cloudy
9:55 PM 53.1 °F - 37.9 °F 57% 30.02 in 10.0 mi Calm Calm - N/A   Partly Cloudy
10:55 PM 52.0 °F - 34.0 °F 50% 30.04 in 10.0 mi NNE 5.8 mph - N/A   Partly Cloudy
11:55 PM 50.0 °F - 33.1 °F 52% 30.05 in 10.0 mi North 4.6 mph - N/A   Clear